• In Hungary
  • List of Countries
  • For 7 days
  • Water Temperature
  • Satellite Maps
  • Weather Map
  • News
  • Weather Widgets
  • user-avatar
    Login

    Hourly Weather Gricovskiy

    Today, 17 July, Tuesday

    Time Temperature Precipitation Wind Pressure Humidity
    00:00 +20°C° 0.5 mm 3 mps 735 mmHg 90%
    01:00 +20°C° 0 mm 3 mps 735 mmHg 91%
    02:00 +20°C° 0 mm 3 mps 735 mmHg 93%
    03:00 +20°C° 0 mm 3 mps 735 mmHg 96%
    04:00 +20°C° 0.5 mm 4 mps 735 mmHg 95%
    05:00 +20°C° 0.5 mm 5 mps 734 mmHg 95%
    06:00 +20°C° 0.5 mm 5 mps 734 mmHg 95%
    07:00 +22°C° 0.1 mm 6 mps 734 mmHg 92%
    08:00 +23°C° 0.1 mm 6 mps 734 mmHg 88%
    09:00 +24°C° 0.1 mm 6 mps 734 mmHg 85%
    10:00 +26°C° 0.4 mm 6 mps 734 mmHg 82%
    11:00 +27°C° 0.4 mm 7 mps 734 mmHg 78%
    12:00 +28°C° 0.4 mm 7 mps 733 mmHg 75%
    13:00 +27°C° 0.8 mm 6 mps 733 mmHg 75%
    14:00 +27°C° 0.8 mm 6 mps 733 mmHg 75%
    15:00 +27°C° 0.8 mm 6 mps 733 mmHg 75%
    16:00 +27°C° 0.6 mm 5 mps 733 mmHg 77%
    17:00 +27°C° 0.6 mm 4 mps 733 mmHg 80%
    18:00 +26°C° 0.6 mm 3 mps 733 mmHg 82%
    19:00 +25°C° 0.3 mm 3 mps 733 mmHg 86%
    20:00 +24°C° 0.3 mm 3 mps 733 mmHg 89%
    21:00 +22°C° 0.3 mm 3 mps 732 mmHg 92%
    22:00 +21°C° 0 mm 3 mps 732 mmHg 93%
    23:00 +21°C° 0 mm 3 mps 732 mmHg 95%

    Tomorrow, 18 July, Wednesday

    Time Temperature Precipitation Wind Pressure Humidity
    00:00 +20°C° 0 mm 4 mps 732 mmHg 96%
    01:00 +20°C° 0 mm 4 mps 732 mmHg 96%
    02:00 +20°C° 0 mm 4 mps 732 mmHg 97%
    03:00 +19°C° 0 mm 4 mps 732 mmHg 97%
    04:00 +20°C° 0 mm 5 mps 732 mmHg 96%
    05:00 +20°C° 0 mm 5 mps 731 mmHg 96%
    06:00 +20°C° 0 mm 6 mps 731 mmHg 95%
    07:00 +20°C° 0.1 mm 6 mps 731 mmHg 95%
    08:00 +20°C° 0.1 mm 6 mps 731 mmHg 94%
    09:00 +20°C° 0.1 mm 6 mps 731 mmHg 94%
    10:00 +21°C° 0.3 mm 6 mps 731 mmHg 92%
    11:00 +21°C° 0.3 mm 6 mps 731 mmHg 91%
    12:00 +21°C° 0.3 mm 6 mps 731 mmHg 90%
    13:00 +22°C° 0.6 mm 6 mps 730 mmHg 88%
    14:00 +22°C° 0.6 mm 6 mps 730 mmHg 86%
    15:00 +23°C° 0.6 mm 6 mps 730 mmHg 85%
    16:00 +23°C° 0.6 mm 6 mps 730 mmHg 85%
    17:00 +23°C° 0.6 mm 6 mps 730 mmHg 85%
    18:00 +23°C° 0.6 mm 6 mps 730 mmHg 85%
    19:00 +22°C° 0.2 mm 5 mps 730 mmHg 88%
    20:00 +21°C° 0.2 mm 5 mps 730 mmHg 91%
    21:00 +20°C° 0.2 mm 5 mps 730 mmHg 93%
    22:00 +20°C° 0.1 mm 5 mps 730 mmHg 94%
    23:00 +19°C° 0.1 mm 4 mps 730 mmHg 95%

    Day after tomorrow, 19 July, Thursday

    Time Temperature Precipitation Wind Pressure Humidity
    00:00 +19°C° 0.1 mm 4 mps 730 mmHg 96%
    01:00 +19°C° 0 mm 4 mps 730 mmHg 96%
    02:00 +19°C° 0 mm 4 mps 730 mmHg 96%
    03:00 +19°C° 0 mm 4 mps 730 mmHg 96%
    04:00 +19°C° 0.2 mm 4 mps 730 mmHg 96%
    05:00 +19°C° 0.2 mm 4 mps 730 mmHg 96%
    06:00 +19°C° 0.2 mm 3 mps 730 mmHg 96%
    07:00 +19°C° 0.5 mm 3 mps 730 mmHg 96%
    08:00 +19°C° 0.5 mm 3 mps 731 mmHg 95%
    09:00 +20°C° 0.5 mm 3 mps 731 mmHg 95%
    10:00 +20°C° 0.4 mm 2 mps 731 mmHg 93%
    11:00 +21°C° 0.4 mm 2 mps 731 mmHg 90%
    12:00 +21°C° 0.4 mm 2 mps 731 mmHg 88%
    13:00 +23°C° 0.7 mm 2 mps 731 mmHg 85%
    14:00 +24°C° 0.7 mm 2 mps 731 mmHg 82%
    15:00 +25°C° 0.7 mm 3 mps 732 mmHg 79%
    16:00 +25°C° 0.8 mm 2 mps 732 mmHg 79%
    17:00 +25°C° 0.8 mm 2 mps 732 mmHg 80%
    18:00 +26°C° 0.8 mm 2 mps 732 mmHg 80%
    19:00 +24°C° 0.5 mm 2 mps 732 mmHg 84%
    20:00 +23°C° 0.5 mm 2 mps 732 mmHg 88%
    21:00 +21°C° 0.5 mm 2 mps 732 mmHg 92%
    22:00 +20°C° 0 mm 2 mps 732 mmHg 93%
    23:00 +20°C° 0 mm 2 mps 732 mmHg 94%

    20 July, Friday

    Time Temperature Precipitation Wind Pressure Humidity
    00:00 +20°C° 0 mm 2 mps 732 mmHg 95%
    01:00 +19°C° 0 mm 2 mps 732 mmHg 95%
    02:00 +19°C° 0 mm 2 mps 733 mmHg 96%
    03:00 +19°C° 0 mm 2 mps 733 mmHg 96%
    04:00 +19°C° 0 mm 2 mps 733 mmHg 96%
    05:00 +19°C° 0 mm 3 mps 733 mmHg 95%
    06:00 +20°C° 0 mm 3 mps 734 mmHg 95%
    07:00 +21°C° 0 mm 3 mps 734 mmHg 91%
    08:00 +22°C° 0 mm 3 mps 734 mmHg 87%
    09:00 +25°C° 0 mm 4 mps 734 mmHg 83%
    10:00 +26°C° 0.2 mm 4 mps 734 mmHg 78%
    11:00 +27°C° 0.2 mm 4 mps 734 mmHg 74%
    12:00 +28°C° 0.2 mm 4 mps 734 mmHg 69%
    13:00 +28°C° 0.2 mm 4 mps 735 mmHg 69%
    14:00 +28°C° 0.2 mm 4 mps 735 mmHg 68%
    15:00 +29°C° 0.2 mm 4 mps 735 mmHg 68%
    16:00 +28°C° 0.3 mm 3 mps 735 mmHg 71%
    17:00 +28°C° 0.3 mm 3 mps 735 mmHg 74%
    18:00 +28°C° 0.3 mm 3 mps 735 mmHg 77%
    19:00 +26°C° 0.2 mm 3 mps 735 mmHg 81%
    20:00 +25°C° 0.2 mm 2 mps 735 mmHg 85%
    21:00 +23°C° 0.2 mm 2 mps 735 mmHg 89%
    22:00 +23°C° 0 mm 2 mps 735 mmHg 90%
    23:00 +21°C° 0 mm 2 mps 735 mmHg 92%

    21 July, Saturday

    Time Temperature Precipitation Wind Pressure Humidity
    00:00 +22°C° 0 mm 1 mps 735 mmHg 93%
    01:00 +20°C° 0.1 mm 2 mps 735 mmHg 93%
    02:00 +20°C° 0.1 mm 2 mps 736 mmHg 94%
    03:00 +20°C° 0.1 mm 2 mps 736 mmHg 95%
    04:00 +20°C° 0 mm 2 mps 736 mmHg 94%
    05:00 +20°C° 0 mm 2 mps 736 mmHg 94%
    06:00 +21°C° 0 mm 2 mps 736 mmHg 94%
    07:00 +23°C° 0 mm 2 mps 736 mmHg 89%
    08:00 +25°C° 0 mm 2 mps 736 mmHg 84%
    09:00 +26°C° 0 mm 2 mps 736 mmHg 79%
    10:00 +27°C° 0.6 mm 2 mps 736 mmHg 75%
    11:00 +27°C° 0.6 mm 3 mps 736 mmHg 71%
    12:00 +28°C° 0.6 mm 3 mps 736 mmHg 68%
    13:00 +28°C° 0.5 mm 3 mps 736 mmHg 69%
    14:00 +28°C° 0.5 mm 3 mps 736 mmHg 70%
    15:00 +28°C° 0.5 mm 4 mps 736 mmHg 72%
    16:00 +27°C° 0.7 mm 3 mps 736 mmHg 75%
    17:00 +27°C° 0.7 mm 3 mps 736 mmHg 78%
    18:00 +26°C° 0.7 mm 3 mps 736 mmHg 80%
    19:00 +25°C° 0.3 mm 3 mps 736 mmHg 84%
    20:00 +24°C° 0.3 mm 3 mps 736 mmHg 87%
    21:00 +23°C° 0.3 mm 2 mps 736 mmHg 90%
    22:00 +23°C° 0 mm 2 mps 736 mmHg 91%
    23:00 +21°C° 0 mm 2 mps 735 mmHg 92%

    22 July, Sunday

    Time Temperature Precipitation Wind Pressure Humidity
    00:00 +21°C° 0 mm 2 mps 735 mmHg 92%
    01:00 +20°C° 0.4 mm 2 mps 735 mmHg 93%
    02:00 +20°C° 0.4 mm 2 mps 735 mmHg 93%
    03:00 +20°C° 0.4 mm 2 mps 735 mmHg 94%
    04:00 +20°C° 0 mm 2 mps 735 mmHg 94%
    05:00 +20°C° 0 mm 2 mps 735 mmHg 94%
    06:00 +20°C° 0 mm 3 mps 735 mmHg 94%
    07:00 +22°C° 0.2 mm 3 mps 735 mmHg 90%
    08:00 +24°C° 0.2 mm 3 mps 736 mmHg 86%
    09:00 +26°C° 0.2 mm 3 mps 736 mmHg 83%
    10:00 +27°C° 1.1 mm 4 mps 735 mmHg 78%
    11:00 +28°C° 1.1 mm 4 mps 735 mmHg 72%
    12:00 +29°C° 1.1 mm 4 mps 735 mmHg 67%
    13:00 +28°C° 0.7 mm 5 mps 735 mmHg 70%
    14:00 +28°C° 0.7 mm 5 mps 735 mmHg 74%
    15:00 +27°C° 0.7 mm 6 mps 735 mmHg 77%
    16:00 +27°C° 0.5 mm 5 mps 735 mmHg 79%
    17:00 +27°C° 0.5 mm 5 mps 735 mmHg 81%
    18:00 +26°C° 0.5 mm 5 mps 735 mmHg 82%
    19:00 +25°C° 0.1 mm 4 mps 735 mmHg 85%
    20:00 +25°C° 0.1 mm 4 mps 735 mmHg 87%
    21:00 +23°C° 0.1 mm 4 mps 735 mmHg 90%
    22:00 +22°C° 0.2 mm 4 mps 735 mmHg 92%
    23:00 +22°C° 0.2 mm 3 mps 735 mmHg 93%
    Show more